Tracking 30970 objects as of 3-Jul-2025
HD Live streaming from Space Station
objects crossing your sky now

SATCOM 3 DEB

Track SATCOM 3 DEB now!


NORAD ID: 32984
Int'l Code: 1979-101K
Perigee: 8,279.9 km
Apogee: 35,520.4 km
Inclination: 9.2 °
Period: 788.5 minutes
Semi major axis: 28271 km
RCS: 0.003 m2 (small)
Launch date: December 7, 1979
Source: United States (US)
Launch site: AIR FORCE EASTERN TEST RANGE (AFETR)

Note: This is SATELLITE DEBRIS
Your satellite tracking list
Your tracking list is empty




NASA's NSSDC Master Catalog

Two Line Element Set (TLE):
1 32984U 79101K   25183.88229620 -.00000092  00000-0  00000-0 0  9992
2 32984   9.1841 108.8144 4817718  47.8121 162.3637  1.82636264 83294
Source of the keplerian elements: AFSPC